Time,TemperatureF,DewpointF,PressureIn,WindDirection,WindDirectionDegrees,WindSpeedMPH,WindSpeedGustMPH,Humidity,HourlyPrecipIn,Conditions,Clouds,dailyrainin,SoftwareType,DateUTC
2013-01-25 00:00:00,6.2,-2.1,30.44,South,185,2.0,3.0,68,0.00,,---,0.00,VWS V14.01,2013-01-25 05:00:00,
2013-01-25 00:02:00,6.2,-2.1,30.44,South,186,1.0,4.0,68,0.00,,---,0.00,VWS V14.01,2013-01-25 05:02:00,
2013-01-25 00:03:00,6.2,-1.8,30.44,South,186,2.0,4.0,69,0.00,,---,0.00,VWS V14.01,2013-01-25 05:03:00,
2013-01-25 00:08:00,6.2,-2.1,30.44,South,177,1.0,4.0,68,0.00,,---,0.00,VWS V14.01,2013-01-25 05:08:00,
2013-01-25 00:10:00,6.2,-2.1,30.44,South,177,3.0,4.0,68,0.00,,---,0.00,VWS V14.01,2013-01-25 05:10:00,
2013-01-25 00:13:00,6.2,-2.1,30.44,South,177,2.0,4.0,68,0.00,,---,0.00,VWS V14.01,2013-01-25 05:13:00,
2013-01-25 00:18:00,6.2,-1.8,30.44,SSW,211,0.0,5.0,69,0.00,,---,0.00,VWS V14.01,2013-01-25 05:18:00,
2013-01-25 00:20:00,6.2,-1.8,30.44,South,175,3.0,6.0,69,0.00,,---,0.00,VWS V14.01,2013-01-25 05:20:00,
2013-01-25 00:23:00,6.4,-1.6,30.44,SSE,163,1.0,3.0,69,0.00,,---,0.00,VWS V14.01,2013-01-25 05:23:00,
2013-01-25 00:28:00,6.4,-1.9,30.44,South,184,3.0,6.0,68,0.00,,---,0.00,VWS V14.01,2013-01-25 05:28:00,
2013-01-25 00:30:00,6.4,-1.9,30.44,South,185,2.0,6.0,68,0.00,,---,0.00,VWS V14.01,2013-01-25 05:30:00,
2013-01-25 00:33:00,6.5,-1.8,30.43,SSW,195,2.0,4.0,68,0.00,,---,0.00,VWS V14.01,2013-01-25 05:33:00,
2013-01-25 00:38:00,6.5,-1.8,30.44,South,191,2.0,5.0,68,0.00,,---,0.00,VWS V14.01,2013-01-25 05:38:00,
2013-01-25 00:40:00,6.5,-1.8,30.43,South,191,2.0,5.0,68,0.00,,---,0.00,VWS V14.01,2013-01-25 05:40:00,
2013-01-25 00:43:00,6.7,-1.6,30.43,South,183,2.0,7.0,68,0.00,,---,0.00,VWS V14.01,2013-01-25 05:43:00,
2013-01-25 00:49:00,6.7,-1.6,30.43,SSW,200,4.0,7.0,68,0.00,,---,0.00,VWS V14.01,2013-01-25 05:49:00,
2013-01-25 00:50:00,6.7,-1.6,30.43,SSW,198,6.0,7.0,68,0.00,,---,0.00,VWS V14.01,2013-01-25 05:50:00,
2013-01-25 00:54:00,6.9,-1.7,30.43,SSW,207,1.0,6.0,67,0.00,,---,0.00,VWS V14.01,2013-01-25 05:54:00,
2013-01-25 00:59:00,6.9,-1.7,30.42,South,180,4.0,6.0,67,0.00,,---,0.00,VWS V14.01,2013-01-25 05:59:00,
2013-01-25 01:00:00,6.9,-1.4,30.42,South,191,2.0,6.0,68,0.00,,---,0.00,VWS V14.01,2013-01-25 06:00:00,
2013-01-25 01:04:00,6.9,-1.7,30.41,South,180,1.0,4.0,67,0.00,,---,0.00,VWS V14.01,2013-01-25 06:04:00,
2013-01-25 01:09:00,6.9,-1.7,30.41,South,189,5.0,5.0,67,0.00,,---,0.00,VWS V14.01,2013-01-25 06:09:00,
2013-01-25 01:10:00,6.9,-1.7,30.41,SSE,167,2.0,5.0,67,0.00,,---,0.00,VWS V14.01,2013-01-25 06:10:00,
2013-01-25 01:14:00,7.1,-1.2,30.41,South,176,2.0,5.0,68,0.00,,---,0.00,VWS V14.01,2013-01-25 06:14:00,
2013-01-25 01:19:00,7.1,-1.5,30.40,South,177,1.0,5.0,67,0.00,,---,0.00,VWS V14.01,2013-01-25 06:19:00,
2013-01-25 01:20:00,7.1,-1.5,30.40,South,175,0.0,5.0,67,0.00,,---,0.00,VWS V14.01,2013-01-25 06:20:00,
2013-01-25 01:24:00,7.1,-1.5,30.40,South,172,2.0,4.0,67,0.00,,---,0.00,VWS V14.01,2013-01-25 06:24:00,
2013-01-25 01:29:00,7.3,-1.3,30.39,South,183,3.0,6.0,67,0.00,,---,0.00,VWS V14.01,2013-01-25 06:29:00,
2013-01-25 01:30:00,7.2,-1.4,30.39,South,183,2.0,6.0,67,0.00,,---,0.00,VWS V14.01,2013-01-25 06:30:00,
2013-01-25 01:34:00,7.3,-1.0,30.39,SSW,197,1.0,6.0,68,0.00,,---,0.00,VWS V14.01,2013-01-25 06:34:00,
2013-01-25 01:39:00,7.4,-1.2,30.38,South,184,1.0,6.0,67,0.00,,---,0.00,VWS V14.01,2013-01-25 06:39:00,
2013-01-25 01:40:00,7.4,-0.9,30.38,South,184,1.0,6.0,68,0.00,,---,0.00,VWS V14.01,2013-01-25 06:40:00,
2013-01-25 01:44:00,7.4,-0.9,30.38,South,183,1.0,4.0,68,0.00,,---,0.00,VWS V14.01,2013-01-25 06:44:00,
2013-01-25 01:49:00,7.4,-0.9,30.38,South,183,3.0,4.0,68,0.00,,---,0.00,VWS V14.01,2013-01-25 06:49:00,
2013-01-25 01:50:00,7.4,-0.9,30.38,South,183,0.0,4.0,68,0.00,,---,0.00,VWS V14.01,2013-01-25 06:50:00,
2013-01-25 01:54:00,7.6,-1.0,30.38,South,184,5.0,6.0,67,0.00,,---,0.00,VWS V14.01,2013-01-25 06:54:00,
2013-01-25 01:59:00,7.8,-0.9,30.37,South,189,3.0,6.0,67,0.00,,---,0.00,VWS V14.01,2013-01-25 06:59:00,
2013-01-25 02:00:00,7.8,-0.9,30.37,South,189,3.0,6.0,67,0.00,,---,0.00,VWS V14.01,2013-01-25 07:00:00,
2013-01-25 02:04:00,7.8,-0.9,30.36,South,191,3.0,5.0,67,0.00,,---,0.00,VWS V14.01,2013-01-25 07:04:00,
2013-01-25 02:09:00,7.8,-0.9,30.36,South,187,1.0,5.0,67,0.00,,---,0.00,VWS V14.01,2013-01-25 07:09:00,
2013-01-25 02:10:00,7.8,-0.9,30.36,South,187,0.0,5.0,67,0.00,,---,0.00,VWS V14.01,2013-01-25 07:10:00,
2013-01-25 02:14:00,7.8,-0.9,30.36,SSE,161,2.0,6.0,67,0.00,,---,0.00,VWS V14.01,2013-01-25 07:14:00,
2013-01-25 02:19:00,7.9,-0.8,30.36,South,188,2.0,6.0,67,0.00,,---,0.00,VWS V14.01,2013-01-25 07:19:00,
2013-01-25 02:20:00,8.0,-0.7,30.36,SSW,192,2.0,6.0,67,0.00,,---,0.00,VWS V14.01,2013-01-25 07:20:00,
2013-01-25 02:24:00,8.1,-0.6,30.36,South,187,1.0,6.0,67,0.00,,---,0.00,VWS V14.01,2013-01-25 07:24:00,
2013-01-25 02:29:00,8.1,-0.6,30.36,SSW,196,3.0,6.0,67,0.00,,---,0.00,VWS V14.01,2013-01-25 07:29:00,
2013-01-25 02:30:00,8.1,-0.6,30.36,South,187,3.0,7.0,67,0.00,,---,0.00,VWS V14.01,2013-01-25 07:30:00,
2013-01-25 02:34:00,8.1,-0.6,30.35,South,185,2.0,7.0,67,0.00,,---,0.00,VWS V14.01,2013-01-25 07:34:00,
2013-01-25 02:39:00,8.2,-0.5,30.35,South,188,3.0,7.0,67,0.00,,---,0.00,VWS V14.01,2013-01-25 07:39:00,
2013-01-25 02:40:00,8.1,-0.6,30.35,South,188,3.0,7.0,67,0.00,,---,0.00,VWS V14.01,2013-01-25 07:40:00,
2013-01-25 02:44:00,8.2,-0.2,30.35,South,175,1.0,5.0,68,0.00,,---,0.00,VWS V14.01,2013-01-25 07:44:00,
2013-01-25 02:49:00,8.3,-0.1,30.35,SSW,193,1.0,7.0,68,0.00,,---,0.00,VWS V14.01,2013-01-25 07:49:00,
2013-01-25 02:50:00,8.3,-0.1,30.35,South,178,3.0,7.0,68,0.00,,---,0.00,VWS V14.01,2013-01-25 07:50:00,
2013-01-25 02:54:00,8.3,-0.4,30.35,South,171,4.0,7.0,67,0.00,,---,0.00,VWS V14.01,2013-01-25 07:54:00,
2013-01-25 02:59:00,8.5,-0.5,30.34,South,190,1.0,7.0,66,0.00,,---,0.00,VWS V14.01,2013-01-25 07:59:00,
2013-01-25 03:00:00,8.5,-0.2,30.34,South,191,2.0,7.0,67,0.00,,---,0.00,VWS V14.01,2013-01-25 08:00:00,
2013-01-25 03:04:00,8.5,-0.2,30.34,SSW,192,3.0,6.0,67,0.00,,---,0.00,VWS V14.01,2013-01-25 08:04:00,
2013-01-25 03:09:00,8.7,0.0,30.34,SSW,195,2.0,6.0,67,0.00,,---,0.00,VWS V14.01,2013-01-25 08:09:00,
2013-01-25 03:10:00,8.7,0.0,30.34,SSW,195,1.0,6.0,67,0.00,,---,0.00,VWS V14.01,2013-01-25 08:10:00,
2013-01-25 03:14:00,8.6,-0.1,30.34,SSW,197,4.0,6.0,67,0.00,,---,0.00,VWS V14.01,2013-01-25 08:14:00,
2013-01-25 03:19:00,8.7,0.0,30.33,SSW,197,1.0,7.0,67,0.00,,---,0.00,VWS V14.01,2013-01-25 08:19:00,
2013-01-25 03:20:00,8.6,-0.1,30.33,SSW,197,2.0,7.0,67,0.00,,---,0.00,VWS V14.01,2013-01-25 08:20:00,
2013-01-25 03:24:00,8.7,0.0,30.33,SSW,197,0.0,5.0,67,0.00,,---,0.00,VWS V14.01,2013-01-25 08:24:00,
2013-01-25 03:29:00,8.7,0.0,30.33,SSW,192,2.0,6.0,67,0.00,,---,0.00,VWS V14.01,2013-01-25 08:29:00,
2013-01-25 03:30:00,8.7,0.0,30.33,SSW,192,2.0,6.0,67,0.00,,---,0.00,VWS V14.01,2013-01-25 08:30:00,
2013-01-25 03:34:00,8.6,-0.1,30.33,SSW,195,3.0,6.0,67,0.00,,---,0.00,VWS V14.01,2013-01-25 08:34:00,
2013-01-25 03:39:00,8.7,0.0,30.33,South,181,2.0,6.0,67,0.00,,---,0.00,VWS V14.01,2013-01-25 08:39:00,
2013-01-25 03:40:00,8.7,0.0,30.33,South,181,2.0,6.0,67,0.00,,---,0.00,VWS V14.01,2013-01-25 08:40:00,
2013-01-25 03:44:00,8.7,0.3,30.32,South,180,3.0,7.0,68,0.00,,---,0.00,VWS V14.01,2013-01-25 08:44:00,
2013-01-25 03:49:00,8.7,0.3,30.33,South,176,2.0,7.0,68,0.00,,---,0.00,VWS V14.01,2013-01-25 08:49:00,
2013-01-25 03:50:00,8.7,0.3,30.33,South,176,2.0,7.0,68,0.00,,---,0.00,VWS V14.01,2013-01-25 08:50:00,
2013-01-25 03:54:00,8.8,0.4,30.32,South,187,1.0,5.0,68,0.00,,---,0.00,VWS V14.01,2013-01-25 08:54:00,
2013-01-25 03:59:00,8.8,0.4,30.32,South,190,0.0,5.0,68,0.00,,---,0.00,VWS V14.01,2013-01-25 08:59:00,
2013-01-25 04:00:00,8.8,0.4,30.32,South,190,0.0,5.0,68,0.00,,---,0.00,VWS V14.01,2013-01-25 09:00:00,
2013-01-25 04:05:00,8.8,0.4,30.32,SSW,192,3.0,6.0,68,0.00,,---,0.00,VWS V14.01,2013-01-25 09:05:00,
2013-01-25 04:10:00,8.8,0.4,30.31,South,172,4.0,6.0,68,0.00,,---,0.00,VWS V14.01,2013-01-25 09:10:00,
2013-01-25 04:15:00,8.8,0.4,30.31,South,174,3.0,5.0,68,0.00,,---,0.00,VWS V14.01,2013-01-25 09:15:00,
2013-01-25 04:20:00,9.0,0.6,30.30,South,191,1.0,6.0,68,0.00,,---,0.00,VWS V14.01,2013-01-25 09:20:00,
2013-01-25 04:25:00,9.0,0.6,30.30,South,175,4.0,7.0,68,0.00,,---,0.00,VWS V14.01,2013-01-25 09:25:00,
2013-01-25 04:30:00,9.0,0.9,30.30,SSE,168,3.0,3.0,69,0.00,,---,0.00,VWS V14.01,2013-01-25 09:30:00,
2013-01-25 04:35:00,9.0,0.9,30.29,SSW,200,2.0,6.0,69,0.00,,---,0.00,VWS V14.01,2013-01-25 09:35:00,
2013-01-25 04:40:00,9.0,1.5,30.29,SSW,193,2.0,2.0,71,0.00,,---,0.00,VWS V14.01,2013-01-25 09:40:00,
2013-01-25 04:45:00,9.2,1.7,30.28,South,186,5.0,5.0,71,0.00,,---,0.00,VWS V14.01,2013-01-25 09:45:00,
2013-01-25 04:50:00,9.2,2.3,30.28,South,181,2.0,2.0,73,0.00,,---,0.00,VWS V14.01,2013-01-25 09:50:00,
2013-01-25 04:55:00,9.2,2.3,30.28,South,175,4.0,5.0,73,0.00,,---,0.00,VWS V14.01,2013-01-25 09:55:00,
2013-01-25 05:00:00,9.2,2.6,30.28,SSW,196,3.0,7.0,74,0.00,,---,0.00,VWS V14.01,2013-01-25 10:00:00,
2013-01-25 05:05:00,9.2,2.6,30.27,South,179,1.0,5.0,74,0.00,,---,0.00,VWS V14.01,2013-01-25 10:05:00,
2013-01-25 05:10:00,9.2,2.9,30.26,South,174,1.0,5.0,75,0.00,,---,0.00,VWS V14.01,2013-01-25 10:10:00,
2013-01-25 05:15:00,9.2,3.2,30.26,South,173,0.0,5.0,76,0.00,,---,0.00,VWS V14.01,2013-01-25 10:15:00,
2013-01-25 05:20:00,9.1,3.1,30.26,SE,141,0.0,1.0,76,0.00,,---,0.00,VWS V14.01,2013-01-25 10:20:00,
2013-01-25 05:25:00,9.2,3.2,30.26,SE,141,2.0,2.0,76,0.00,,---,0.00,VWS V14.01,2013-01-25 10:25:00,
2013-01-25 05:30:00,9.2,3.2,30.26,SSW,195,3.0,4.0,76,0.00,,---,0.00,VWS V14.01,2013-01-25 10:30:00,
2013-01-25 05:35:00,9.2,3.2,30.25,South,186,2.0,5.0,76,0.00,,---,0.00,VWS V14.01,2013-01-25 10:35:00,
2013-01-25 05:40:00,9.2,3.5,30.25,SSW,196,2.0,2.0,77,0.00,,---,0.00,VWS V14.01,2013-01-25 10:40:00,
2013-01-25 05:45:00,9.4,3.7,30.25,South,183,1.0,6.0,77,0.00,,---,0.00,VWS V14.01,2013-01-25 10:45:00,
2013-01-25 05:50:00,9.4,3.7,30.24,South,180,0.0,1.0,77,0.00,,---,0.00,VWS V14.01,2013-01-25 10:50:00,
2013-01-25 05:55:00,9.4,3.7,30.24,SSE,156,1.0,5.0,77,0.00,,---,0.00,VWS V14.01,2013-01-25 10:55:00,
2013-01-25 06:00:00,9.5,4.0,30.24,SSE,155,1.0,1.0,78,0.00,,---,0.00,VWS V14.01,2013-01-25 11:00:00,
2013-01-25 06:05:00,9.5,4.0,30.23,SSE,163,1.0,4.0,78,0.00,,---,0.00,VWS V14.01,2013-01-25 11:05:00,
2013-01-25 06:10:00,9.5,3.8,30.23,South,181,2.0,3.0,77,0.00,,---,0.00,VWS V14.01,2013-01-25 11:10:00,
2013-01-25 06:15:00,9.5,4.0,30.23,South,169,2.0,5.0,78,0.00,,---,0.00,VWS V14.01,2013-01-25 11:15:00,
2013-01-25 06:20:00,9.5,4.0,30.22,South,186,3.0,3.0,78,0.00,,---,0.00,VWS V14.01,2013-01-25 11:20:00,
2013-01-25 06:25:00,9.7,4.0,30.22,SSE,168,1.0,6.0,77,0.00,,---,0.00,VWS V14.01,2013-01-25 11:25:00,
2013-01-25 06:30:00,9.7,4.2,30.22,South,180,0.0,2.0,78,0.00,,---,0.00,VWS V14.01,2013-01-25 11:30:00,
2013-01-25 06:35:00,9.7,4.2,30.21,SSE,147,1.0,6.0,78,0.00,,---,0.00,VWS V14.01,2013-01-25 11:35:00,
2013-01-25 06:40:00,9.7,4.2,30.21,SSW,197,1.0,2.0,78,0.00,,---,0.00,VWS V14.01,2013-01-25 11:40:00,
2013-01-25 06:45:00,9.9,4.4,30.21,South,171,0.0,4.0,78,0.00,,---,0.00,VWS V14.01,2013-01-25 11:45:00,
2013-01-25 06:50:00,9.9,4.7,30.21,SSW,213,1.0,3.0,79,0.00,,---,0.00,VWS V14.01,2013-01-25 11:50:00,
2013-01-25 06:55:00,9.9,4.4,30.21,South,190,1.0,5.0,78,0.00,,---,0.00,VWS V14.01,2013-01-25 11:55:00,
2013-01-25 07:00:00,10.1,4.6,30.21,South,178,1.0,4.0,78,0.00,,---,0.00,VWS V14.01,2013-01-25 12:00:00,
2013-01-25 07:05:00,10.1,4.6,30.20,South,180,0.0,4.0,78,0.00,,---,0.00,VWS V14.01,2013-01-25 12:05:00,
2013-01-25 07:10:00,10.1,4.6,30.20,South,180,1.0,2.0,78,0.00,,---,0.00,VWS V14.01,2013-01-25 12:10:00,
2013-01-25 07:15:00,10.3,4.8,30.19,SSE,166,1.0,4.0,78,0.00,,---,0.00,VWS V14.01,2013-01-25 12:15:00,
2013-01-25 07:20:00,10.3,4.8,30.19,SSE,147,1.0,5.0,78,0.00,,---,0.00,VWS V14.01,2013-01-25 12:20:00,
2013-01-25 07:25:00,10.3,4.8,30.18,SSE,162,3.0,5.0,78,0.00,,---,0.00,VWS V14.01,2013-01-25 12:25:00,
2013-01-25 07:30:00,10.5,5.3,30.18,SSE,166,2.0,5.0,79,0.00,,---,0.00,VWS V14.01,2013-01-25 12:30:00,
2013-01-25 07:35:00,10.4,5.2,30.18,SSE,150,2.0,5.0,79,0.00,,---,0.00,VWS V14.01,2013-01-25 12:35:00,
2013-01-25 07:40:00,10.5,5.0,30.18,South,191,1.0,5.0,78,0.00,,---,0.00,VWS V14.01,2013-01-25 12:40:00,
2013-01-25 07:45:00,10.5,5.0,30.18,SSE,167,2.0,5.0,78,0.00,,---,0.00,VWS V14.01,2013-01-25 12:45:00,
2013-01-25 07:50:00,10.6,5.4,30.18,South,186,5.0,6.0,79,0.00,,---,0.00,VWS V14.01,2013-01-25 12:50:00,
2013-01-25 07:56:00,10.6,5.4,30.17,South,182,2.0,6.0,79,0.00,,---,0.00,VWS V14.01,2013-01-25 12:56:00,
2013-01-25 08:00:00,10.6,5.1,30.17,SSW,193,4.0,6.0,78,0.00,,---,0.00,VWS V14.01,2013-01-25 13:00:00,
2013-01-25 08:01:00,10.6,5.1,30.17,SSE,167,0.0,4.0,78,0.00,,---,0.00,VWS V14.01,2013-01-25 13:01:00,
2013-01-25 08:06:00,10.6,5.1,30.17,South,185,2.0,5.0,78,0.00,,---,0.00,VWS V14.01,2013-01-25 13:06:00,
2013-01-25 08:10:00,10.6,5.4,30.16,SSW,197,1.0,5.0,79,0.00,,---,0.00,VWS V14.01,2013-01-25 13:10:00,
2013-01-25 08:11:00,10.7,5.2,30.16,SSW,197,0.0,2.0,78,0.00,,---,0.00,VWS V14.01,2013-01-25 13:11:00,
2013-01-25 08:16:00,10.8,5.6,30.16,South,183,2.0,5.0,79,0.00,,---,0.00,VWS V14.01,2013-01-25 13:16:00,
2013-01-25 08:20:00,10.8,5.6,30.15,South,178,2.0,8.0,79,0.00,,---,0.00,VWS V14.01,2013-01-25 13:20:00,
2013-01-25 08:21:00,10.8,5.3,30.15,SSW,193,5.0,7.0,78,0.00,,---,0.00,VWS V14.01,2013-01-25 13:21:00,
2013-01-25 08:26:00,10.8,5.6,30.15,SSE,165,3.0,7.0,79,0.00,,---,0.00,VWS V14.01,2013-01-25 13:26:00,
2013-01-25 08:30:00,11.0,5.8,30.15,South,182,5.0,7.0,79,0.00,,---,0.00,VWS V14.01,2013-01-25 13:30:00,
2013-01-25 08:31:00,11.0,5.8,30.15,South,188,5.0,6.0,79,0.00,,---,0.00,VWS V14.01,2013-01-25 13:31:00,
2013-01-25 08:36:00,10.9,5.7,30.15,SE,141,4.0,6.0,79,0.00,,---,0.00,VWS V14.01,2013-01-25 13:36:00,
2013-01-25 08:40:00,11.0,5.8,30.14,South,184,0.0,6.0,79,0.00,,---,0.00,VWS V14.01,2013-01-25 13:40:00,
2013-01-25 08:41:00,11.1,5.9,30.14,South,184,0.0,2.0,79,0.00,,---,0.00,VWS V14.01,2013-01-25 13:41:00,
2013-01-25 08:46:00,11.2,6.0,30.15,South,188,2.0,8.0,79,0.00,,---,0.00,VWS V14.01,2013-01-25 13:46:00,
2013-01-25 08:50:00,11.1,5.9,30.14,South,178,1.0,8.0,79,0.00,,---,0.00,VWS V14.01,2013-01-25 13:50:00,
2013-01-25 08:51:00,11.3,6.1,30.14,South,180,3.0,5.0,79,0.00,,---,0.00,VWS V14.01,2013-01-25 13:51:00,
2013-01-25 08:56:00,11.3,6.1,30.13,South,170,5.0,7.0,79,0.00,,---,0.00,VWS V14.01,2013-01-25 13:56:00,
2013-01-25 09:00:00,11.5,6.3,30.14,South,176,2.0,7.0,79,0.00,,---,0.00,VWS V14.01,2013-01-25 14:00:00,
2013-01-25 09:01:00,11.5,6.3,30.14,South,185,3.0,7.0,79,0.00,,---,0.00,VWS V14.01,2013-01-25 14:01:00,
2013-01-25 09:06:00,11.5,6.0,30.13,SE,145,3.0,7.0,78,0.00,,---,0.00,VWS V14.01,2013-01-25 14:06:00,
2013-01-25 09:10:00,11.6,6.4,30.13,SE,144,2.0,8.0,79,0.00,,---,0.00,VWS V14.01,2013-01-25 14:10:00,
2013-01-25 09:11:00,11.6,6.4,30.13,SSW,212,3.0,5.0,79,0.00,,---,0.00,VWS V14.01,2013-01-25 14:11:00,
2013-01-25 09:16:00,11.8,6.6,30.12,South,178,5.0,7.0,79,0.00,,---,0.00,VWS V14.01,2013-01-25 14:16:00,
2013-01-25 09:20:00,11.8,6.6,30.12,South,173,4.0,9.0,79,0.00,,---,0.00,VWS V14.01,2013-01-25 14:20:00,
2013-01-25 09:21:00,11.9,6.7,30.12,SSE,156,1.0,4.0,79,0.00,,---,0.00,VWS V14.01,2013-01-25 14:21:00,
2013-01-25 09:26:00,12.1,6.8,30.12,SSE,167,2.0,11.0,79,0.00,,---,0.00,VWS V14.01,2013-01-25 14:26:00,
2013-01-25 09:30:00,12.1,6.8,30.12,South,179,5.0,11.0,79,0.00,,---,0.00,VWS V14.01,2013-01-25 14:30:00,
2013-01-25 09:31:00,12.1,6.8,30.12,SSW,194,4.0,6.0,79,0.00,,---,0.00,VWS V14.01,2013-01-25 14:31:00,
2013-01-25 09:36:00,12.3,7.0,30.12,South,178,6.0,8.0,79,0.00,,---,0.00,VWS V14.01,2013-01-25 14:36:00,
2013-01-25 09:40:00,12.5,7.2,30.12,South,184,5.0,8.0,79,0.00,,---,0.00,VWS V14.01,2013-01-25 14:40:00,
2013-01-25 09:41:00,12.5,7.2,30.12,SSE,161,5.0,6.0,79,0.00,,---,0.00,VWS V14.01,2013-01-25 14:41:00,
2013-01-25 09:46:00,12.5,7.2,30.12,SSW,194,5.0,8.0,79,0.00,,---,0.00,VWS V14.01,2013-01-25 14:46:00,
2013-01-25 09:50:00,12.6,7.3,30.11,South,177,4.0,8.0,79,0.00,,---,0.00,VWS V14.01,2013-01-25 14:50:00,
2013-01-25 09:51:00,12.6,7.3,30.11,South,172,5.0,7.0,79,0.00,,---,0.00,VWS V14.01,2013-01-25 14:51:00,
2013-01-25 09:56:00,12.8,7.5,30.11,SE,140,3.0,10.0,79,0.00,,---,0.00,VWS V14.01,2013-01-25 14:56:00,
2013-01-25 10:00:00,12.8,7.5,30.11,SSE,159,4.0,10.0,79,0.00,,---,0.00,VWS V14.01,2013-01-25 15:00:00,
2013-01-25 10:01:00,12.9,7.6,30.11,South,180,2.0,4.0,79,0.00,,---,0.00,VWS V14.01,2013-01-25 15:01:00,
2013-01-25 10:06:00,13.2,7.9,30.11,SSE,164,5.0,7.0,79,0.00,,---,0.00,VWS V14.01,2013-01-25 15:06:00,
2013-01-25 10:10:00,13.3,8.0,30.11,SE,136,1.0,9.0,79,0.00,,---,0.00,VWS V14.01,2013-01-25 15:10:00,
2013-01-25 10:11:00,13.3,8.0,30.10,SSE,152,4.0,6.0,79,0.00,,---,0.00,VWS V14.01,2013-01-25 15:11:00,
2013-01-25 10:16:00,13.6,8.3,30.10,SE,144,3.0,8.0,79,0.00,,---,0.00,VWS V14.01,2013-01-25 15:16:00,
2013-01-25 10:20:00,13.6,8.3,30.10,South,178,2.0,8.0,79,0.00,,---,0.00,VWS V14.01,2013-01-25 15:20:00,
2013-01-25 10:21:00,13.8,8.5,30.10,SSE,150,3.0,5.0,79,0.00,,---,0.00,VWS V14.01,2013-01-25 15:21:00,
2013-01-25 10:26:00,14.0,8.7,30.10,South,183,2.0,6.0,79,0.00,,---,0.00,VWS V14.01,2013-01-25 15:26:00,
2013-01-25 10:30:00,14.1,8.5,30.09,South,187,1.0,6.0,78,0.00,,---,0.00,VWS V14.01,2013-01-25 15:30:00,
2013-01-25 10:31:00,14.1,8.5,30.10,South,170,2.0,5.0,78,0.00,,---,0.00,VWS V14.01,2013-01-25 15:31:00,
2013-01-25 10:36:00,14.1,8.5,30.09,South,170,2.0,7.0,78,0.00,,---,0.00,VWS V14.01,2013-01-25 15:36:00,
2013-01-25 10:40:00,14.3,8.7,30.09,SE,137,1.0,7.0,78,0.00,,---,0.00,VWS V14.01,2013-01-25 15:40:00,
2013-01-25 10:41:00,14.3,8.7,30.08,South,176,3.0,5.0,78,0.00,,---,0.00,VWS V14.01,2013-01-25 15:41:00,
2013-01-25 10:46:00,14.4,8.8,30.08,South,169,3.0,10.0,78,0.00,,---,0.00,VWS V14.01,2013-01-25 15:46:00,
2013-01-25 10:50:00,14.4,8.8,30.08,South,171,5.0,10.0,78,0.00,,---,0.00,VWS V14.01,2013-01-25 15:50:00,
2013-01-25 10:51:00,14.5,8.9,30.08,SSE,158,5.0,6.0,78,0.00,,---,0.00,VWS V14.01,2013-01-25 15:51:00,
2013-01-25 10:56:00,14.6,9.0,30.08,South,174,3.0,7.0,78,0.00,,---,0.00,VWS V14.01,2013-01-25 15:56:00,
2013-01-25 11:00:00,14.6,9.0,30.08,SSW,204,5.0,9.0,78,0.00,,---,0.00,VWS V14.01,2013-01-25 16:00:00,
2013-01-25 11:01:00,14.6,8.7,30.07,South,183,4.0,6.0,77,0.00,,---,0.00,VWS V14.01,2013-01-25 16:01:00,
2013-01-25 11:06:00,14.8,9.2,30.07,SSE,160,2.0,8.0,78,0.00,,---,0.00,VWS V14.01,2013-01-25 16:06:00,
2013-01-25 11:10:00,14.9,9.3,30.07,SSW,192,5.0,8.0,78,0.00,,---,0.00,VWS V14.01,2013-01-25 16:10:00,
2013-01-25 11:11:00,14.9,9.0,30.07,South,187,2.0,7.0,77,0.00,,---,0.00,VWS V14.01,2013-01-25 16:11:00,
2013-01-25 11:16:00,15.3,9.4,30.07,South,189,10.0,10.0,77,0.00,,---,0.00,VWS V14.01,2013-01-25 16:16:00,
2013-01-25 11:20:00,15.3,9.1,30.07,SSW,198,2.0,10.0,76,0.00,,---,0.00,VWS V14.01,2013-01-25 16:20:00,
2013-01-25 11:21:00,15.2,9.0,30.06,South,180,6.0,6.0,76,0.00,,---,0.00,VWS V14.01,2013-01-25 16:21:00,
2013-01-25 11:26:00,15.6,9.4,30.06,SSE,162,5.0,9.0,76,0.00,,---,0.00,VWS V14.01,2013-01-25 16:26:00,
2013-01-25 11:30:00,15.6,9.7,30.06,South,188,4.0,9.0,77,0.00,,---,0.00,VWS V14.01,2013-01-25 16:30:00,
2013-01-25 11:31:00,15.8,9.9,30.06,SW,228,1.0,8.0,77,0.00,,---,0.00,VWS V14.01,2013-01-25 16:31:00,
2013-01-25 11:36:00,15.9,10.0,30.06,South,178,7.0,9.0,77,0.00,,---,0.00,VWS V14.01,2013-01-25 16:36:00,
2013-01-25 11:40:00,16.0,10.1,30.05,South,176,7.0,9.0,77,0.00,,---,0.00,VWS V14.01,2013-01-25 16:40:00,
2013-01-25 11:41:00,16.2,10.3,30.05,South,183,5.0,8.0,77,0.00,,---,0.00,VWS V14.01,2013-01-25 16:41:00,
2013-01-25 11:47:00,16.4,10.2,30.05,SSW,202,6.0,9.0,76,0.00,,---,0.00,VWS V14.01,2013-01-25 16:47:00,
2013-01-25 11:50:00,16.6,10.1,30.05,SW,217,4.0,9.0,75,0.00,,---,0.00,VWS V14.01,2013-01-25 16:50:00,
2013-01-25 11:52:00,16.6,10.4,30.05,South,180,4.0,8.0,76,0.00,,---,0.00,VWS V14.01,2013-01-25 16:52:00,
2013-01-25 11:57:00,16.7,10.5,30.04,SW,219,0.0,9.0,76,0.00,,---,0.00,VWS V14.01,2013-01-25 16:57:00,
2013-01-25 12:00:00,16.9,10.7,30.04,SSE,163,5.0,11.0,76,0.00,,---,0.00,VWS V14.01,2013-01-25 17:00:00,
2013-01-25 12:02:00,16.7,10.2,30.04,SSW,202,2.0,8.0,75,0.00,,---,0.00,VWS V14.01,2013-01-25 17:02:00,
2013-01-25 12:07:00,16.9,10.4,30.04,SW,216,3.0,8.0,75,0.00,,---,0.00,VWS V14.01,2013-01-25 17:07:00,
2013-01-25 12:10:00,16.9,10.4,30.03,SSW,194,8.0,11.0,75,0.00,,---,0.00,VWS V14.01,2013-01-25 17:10:00,
2013-01-25 12:12:00,16.9,10.4,30.03,SSW,193,7.0,9.0,75,0.00,,---,0.00,VWS V14.01,2013-01-25 17:12:00,
2013-01-25 12:17:00,16.9,10.4,30.03,South,175,7.0,9.0,75,0.00,,---,0.00,VWS V14.01,2013-01-25 17:17:00,
2013-01-25 12:20:00,16.9,10.4,30.03,South,189,2.0,9.0,75,0.00,,---,0.00,VWS V14.01,2013-01-25 17:20:00,
2013-01-25 12:22:00,16.9,10.4,30.03,South,187,6.0,8.0,75,0.00,,---,0.00,VWS V14.01,2013-01-25 17:22:00,
2013-01-25 12:27:00,16.9,10.4,30.02,SSW,208,3.0,9.0,75,0.00,,---,0.00,VWS V14.01,2013-01-25 17:27:00,
2013-01-25 12:30:00,16.9,10.4,30.02,SSE,152,6.0,12.0,75,0.00,,---,0.00,VWS V14.01,2013-01-25 17:30:00,
2013-01-25 12:32:00,16.9,10.4,30.02,SSW,202,5.0,6.0,75,0.00,,---,0.00,VWS V14.01,2013-01-25 17:32:00,
2013-01-25 12:37:00,17.0,10.5,30.02,South,186,4.0,8.0,75,0.00,,---,0.00,VWS V14.01,2013-01-25 17:37:00,
2013-01-25 12:40:00,17.0,10.8,30.01,South,180,3.0,8.0,76,0.00,,---,0.00,VWS V14.01,2013-01-25 17:40:00,
2013-01-25 12:42:00,17.0,10.5,30.01,South,175,3.0,6.0,75,0.00,,---,0.00,VWS V14.01,2013-01-25 17:42:00,
2013-01-25 12:47:00,17.2,10.9,30.01,South,184,3.0,12.0,76,0.00,,---,0.00,VWS V14.01,2013-01-25 17:47:00,
2013-01-25 12:50:00,17.4,11.1,30.00,SSE,162,2.0,12.0,76,0.00,,---,0.00,VWS V14.01,2013-01-25 17:50:00,
2013-01-25 12:52:00,17.3,11.1,30.00,SSE,167,2.0,9.0,76,0.00,,---,0.00,VWS V14.01,2013-01-25 17:52:00,
2013-01-25 12:57:00,17.5,11.2,30.00,SSE,165,4.0,9.0,76,0.00,,---,0.00,VWS V14.01,2013-01-25 17:57:00,
2013-01-25 13:00:00,17.5,11.2,30.00,SSW,198,1.0,9.0,76,0.00,,---,0.00,VWS V14.01,2013-01-25 18:00:00,
2013-01-25 13:02:00,17.7,11.7,30.00,South,187,1.0,6.0,77,0.00,,---,0.00,VWS V14.01,2013-01-25 18:02:00,
2013-01-25 13:07:00,18.0,12.0,29.99,SSE,148,2.0,7.0,77,0.00,,---,0.00,VWS V14.01,2013-01-25 18:07:00,
2013-01-25 13:10:00,18.0,12.0,29.99,SW,216,1.0,8.0,77,0.00,,---,0.00,VWS V14.01,2013-01-25 18:10:00,
2013-01-25 13:12:00,18.2,12.5,29.99,South,186,1.0,6.0,78,0.00,,---,0.00,VWS V14.01,2013-01-25 18:12:00,
2013-01-25 13:17:00,18.3,12.3,29.99,SSE,153,3.0,10.0,77,0.00,,---,0.00,VWS V14.01,2013-01-25 18:17:00,
2013-01-25 13:20:00,18.3,12.6,29.99,SSW,198,5.0,10.0,78,0.00,,---,0.00,VWS V14.01,2013-01-25 18:20:00,
2013-01-25 13:22:00,18.5,12.5,29.98,South,177,4.0,10.0,77,0.00,,---,0.00,VWS V14.01,2013-01-25 18:22:00,
2013-01-25 13:27:00,18.4,12.4,29.98,South,170,5.0,10.0,77,0.00,,---,0.00,VWS V14.01,2013-01-25 18:27:00,
2013-01-25 13:30:00,18.5,12.2,29.98,SSW,204,7.0,13.0,76,0.00,,---,0.00,VWS V14.01,2013-01-25 18:30:00,
2013-01-25 13:32:00,18.3,12.0,29.98,SSW,192,6.0,11.0,76,0.00,,---,0.00,VWS V14.01,2013-01-25 18:32:00,
2013-01-25 13:37:00,18.5,12.2,29.98,SSW,210,5.0,11.0,76,0.00,,---,0.00,VWS V14.01,2013-01-25 18:37:00,
2013-01-25 13:40:00,18.5,12.2,29.98,SE,142,9.0,11.0,76,0.00,,---,0.00,VWS V14.01,2013-01-25 18:40:00,
2013-01-25 13:42:00,18.5,11.9,29.97,SE,146,3.0,12.0,75,0.00,,---,0.00,VWS V14.01,2013-01-25 18:42:00,
2013-01-25 13:47:00,18.3,11.7,29.97,SSW,197,7.0,12.0,75,0.00,,---,0.00,VWS V14.01,2013-01-25 18:47:00,
2013-01-25 13:50:00,18.3,11.7,29.97,South,183,3.0,12.0,75,0.00,,---,0.00,VWS V14.01,2013-01-25 18:50:00,
2013-01-25 13:52:00,18.3,11.7,29.97,SSW,210,5.0,9.0,75,0.00,,---,0.00,VWS V14.01,2013-01-25 18:52:00,
2013-01-25 13:57:00,18.1,11.8,29.97,SE,131,3.0,9.0,76,0.00,,---,0.00,VWS V14.01,2013-01-25 18:57:00,
2013-01-25 14:00:00,18.1,11.8,29.96,South,175,4.0,9.0,76,0.00,,---,0.00,VWS V14.01,2013-01-25 19:00:00,
2013-01-25 14:02:00,18.1,11.8,29.96,South,180,8.0,8.0,76,0.00,,---,0.00,VWS V14.01,2013-01-25 19:02:00,
2013-01-25 14:07:00,18.1,12.1,29.96,SW,217,4.0,8.0,77,0.00,,---,0.00,VWS V14.01,2013-01-25 19:07:00,
2013-01-25 14:10:00,18.3,12.3,29.96,SSE,161,2.0,8.0,77,0.00,,---,0.00,VWS V14.01,2013-01-25 19:10:00,
2013-01-25 14:12:00,18.3,12.6,29.95,South,172,3.0,6.0,78,0.00,,---,0.00,VWS V14.01,2013-01-25 19:12:00,
2013-01-25 14:17:00,18.4,12.7,29.95,SSW,199,3.0,6.0,78,0.00,,---,0.00,VWS V14.01,2013-01-25 19:17:00,
2013-01-25 14:20:00,18.5,12.8,29.95,SSE,148,3.0,7.0,78,0.00,,---,0.00,VWS V14.01,2013-01-25 19:20:00,
2013-01-25 14:22:00,18.6,12.9,29.96,South,184,1.0,5.0,78,0.00,,---,0.00,VWS V14.01,2013-01-25 19:22:00,
2013-01-25 14:27:00,18.8,13.1,29.95,South,190,2.0,9.0,78,0.00,,---,0.00,VWS V14.01,2013-01-25 19:27:00,
2013-01-25 14:30:00,18.9,13.2,29.95,SSE,167,5.0,9.0,78,0.00,,---,0.00,VWS V14.01,2013-01-25 19:30:00,
2013-01-25 14:32:00,18.8,12.8,29.95,South,186,4.0,10.0,77,0.00,,---,0.00,VWS V14.01,2013-01-25 19:32:00,
2013-01-25 14:37:00,18.8,12.8,29.95,SSW,207,12.0,12.0,77,0.00,,---,0.00,VWS V14.01,2013-01-25 19:37:00,
2013-01-25 14:40:00,18.8,12.5,29.95,South,177,5.0,12.0,76,0.00,,---,0.00,VWS V14.01,2013-01-25 19:40:00,
2013-01-25 14:42:00,18.8,12.8,29.95,SSE,161,4.0,11.0,77,0.00,,---,0.00,VWS V14.01,2013-01-25 19:42:00,
2013-01-25 14:47:00,18.8,12.8,29.95,South,190,0.0,11.0,77,0.00,,---,0.00,VWS V14.01,2013-01-25 19:47:00,
2013-01-25 14:50:00,18.8,12.8,29.95,SE,145,5.0,11.0,77,0.00,,---,0.00,VWS V14.01,2013-01-25 19:50:00,
2013-01-25 14:52:00,18.8,12.8,29.95,SSW,199,5.0,7.0,77,0.00,,---,0.00,VWS V14.01,2013-01-25 19:52:00,
2013-01-25 14:57:00,18.6,12.3,29.95,South,173,2.0,8.0,76,0.00,,---,0.00,VWS V14.01,2013-01-25 19:57:00,
2013-01-25 15:00:00,18.6,12.6,29.95,South,189,0.0,8.0,77,0.00,,---,0.00,VWS V14.01,2013-01-25 20:00:00,
2013-01-25 15:02:00,18.6,12.6,29.95,South,175,0.0,5.0,77,0.00,,---,0.00,VWS V14.01,2013-01-25 20:02:00,
2013-01-25 15:07:00,18.6,12.9,29.95,SSE,153,1.0,5.0,78,0.00,,---,0.00,VWS V14.01,2013-01-25 20:07:00,
2013-01-25 15:10:00,18.6,12.6,29.95,SSW,203,2.0,5.0,77,0.00,,---,0.00,VWS V14.01,2013-01-25 20:10:00,
2013-01-25 15:12:00,18.6,12.9,29.95,SSW,201,3.0,3.0,78,0.00,,---,0.00,VWS V14.01,2013-01-25 20:12:00,
2013-01-25 15:17:00,18.6,12.9,29.95,SSE,153,2.0,6.0,78,0.00,,---,0.00,VWS V14.01,2013-01-25 20:17:00,
2013-01-25 15:20:00,18.6,12.9,29.95,SSE,153,0.0,6.0,78,0.00,,---,0.00,VWS V14.01,2013-01-25 20:20:00,
2013-01-25 15:22:00,18.6,12.9,29.95,SSE,161,1.0,5.0,78,0.00,,---,0.00,VWS V14.01,2013-01-25 20:22:00,
2013-01-25 15:27:00,18.6,12.6,29.95,SW,215,0.0,5.0,77,0.00,,---,0.00,VWS V14.01,2013-01-25 20:27:00,
2013-01-25 15:30:00,18.6,12.9,29.95,SSE,164,2.0,5.0,78,0.00,,---,0.00,VWS V14.01,2013-01-25 20:30:00,
2013-01-25 15:32:00,18.5,12.8,29.95,SE,144,1.0,3.0,78,0.00,,---,0.00,VWS V14.01,2013-01-25 20:32:00,
2013-01-25 15:37:00,18.4,12.7,29.95,SE,143,0.0,3.0,78,0.00,,---,0.00,VWS V14.01,2013-01-25 20:37:00,
2013-01-25 15:40:00,18.4,12.7,29.95,SE,143,3.0,3.0,78,0.00,,---,0.00,VWS V14.01,2013-01-25 20:40:00,
2013-01-25 15:42:00,18.6,12.9,29.95,SE,143,0.0,3.0,78,0.00,,---,0.00,VWS V14.01,2013-01-25 20:42:00,
2013-01-25 15:47:00,18.5,12.8,29.95,SSE,165,3.0,5.0,78,0.00,,---,0.00,VWS V14.01,2013-01-25 20:47:00,
2013-01-25 15:50:00,18.4,12.7,29.95,SSE,155,1.0,5.0,78,0.00,,---,0.00,VWS V14.01,2013-01-25 20:50:00,
2013-01-25 15:52:00,18.5,13.1,29.95,SSE,166,1.0,3.0,79,0.00,,---,0.00,VWS V14.01,2013-01-25 20:52:00,
2013-01-25 15:57:00,18.6,13.2,29.95,SSE,158,2.0,5.0,79,0.00,,---,0.00,VWS V14.01,2013-01-25 20:57:00,
2013-01-25 16:00:00,18.6,13.2,29.95,SSE,156,1.0,5.0,79,0.00,,---,0.00,VWS V14.01,2013-01-25 21:00:00,
2013-01-25 16:02:00,18.4,13.0,29.95,South,187,3.0,5.0,79,0.00,,---,0.00,VWS V14.01,2013-01-25 21:02:00,
2013-01-25 16:07:00,18.6,13.2,29.95,SSE,168,3.0,5.0,79,0.00,,---,0.00,VWS V14.01,2013-01-25 21:07:00,
2013-01-25 16:10:00,18.6,13.2,29.95,SSE,167,1.0,5.0,79,0.00,,---,0.00,VWS V14.01,2013-01-25 21:10:00,
2013-01-25 16:12:00,18.6,13.2,29.95,SSE,167,0.0,3.0,79,0.00,,---,0.00,VWS V14.01,2013-01-25 21:12:00,
2013-01-25 16:17:00,18.6,13.2,29.95,SE,145,1.0,5.0,79,0.00,,---,0.00,VWS V14.01,2013-01-25 21:17:00,
2013-01-25 16:20:00,18.6,13.5,29.95,SSE,166,2.0,5.0,80,0.00,,---,0.00,VWS V14.01,2013-01-25 21:20:00,
2013-01-25 16:23:00,18.6,13.5,29.95,SSE,168,1.0,3.0,80,0.00,,---,0.00,VWS V14.01,2013-01-25 21:23:00,
2013-01-25 16:28:00,18.6,13.2,29.95,SE,146,2.0,7.0,79,0.00,,---,0.00,VWS V14.01,2013-01-25 21:28:00,
2013-01-25 16:30:00,18.6,13.5,29.95,SE,146,0.0,7.0,80,0.00,,---,0.00,VWS V14.01,2013-01-25 21:30:00,
2013-01-25 16:33:00,18.8,13.9,29.96,South,173,3.0,5.0,81,0.00,,---,0.00,VWS V14.01,2013-01-25 21:33:00,
2013-01-25 16:38:00,18.8,13.7,29.96,SSE,147,2.0,5.0,80,0.00,,---,0.00,VWS V14.01,2013-01-25 21:38:00,
2013-01-25 16:40:00,18.6,13.5,29.96,SSE,162,2.0,5.0,80,0.00,,---,0.00,VWS V14.01,2013-01-25 21:40:00,
2013-01-25 16:43:00,18.6,13.5,29.96,SSE,166,0.0,7.0,80,0.00,,---,0.00,VWS V14.01,2013-01-25 21:43:00,
2013-01-25 16:48:00,18.6,13.8,29.95,SE,137,0.0,7.0,81,0.00,,---,0.00,VWS V14.01,2013-01-25 21:48:00,
2013-01-25 16:50:00,18.6,13.8,29.95,SSE,150,0.0,7.0,81,0.00,,---,0.00,VWS V14.01,2013-01-25 21:50:00,
2013-01-25 16:53:00,18.6,13.5,29.96,SSE,156,0.0,3.0,80,0.00,,---,0.00,VWS V14.01,2013-01-25 21:53:00,
2013-01-25 16:58:00,18.4,13.6,29.96,South,191,0.0,4.0,81,0.00,,---,0.00,VWS V14.01,2013-01-25 21:58:00,
2013-01-25 17:00:00,18.5,13.6,29.96,SE,144,1.0,4.0,81,0.00,,---,0.00,VWS V14.01,2013-01-25 22:00:00,
2013-01-25 17:03:00,18.5,13.6,29.96,SSW,200,0.0,4.0,81,0.00,,---,0.00,VWS V14.01,2013-01-25 22:03:00,
2013-01-25 17:08:00,18.3,13.5,29.96,SSE,166,2.0,5.0,81,0.00,,---,0.00,VWS V14.01,2013-01-25 22:08:00,
2013-01-25 17:10:00,18.2,13.4,29.96,SSE,167,2.0,5.0,81,0.00,,---,0.00,VWS V14.01,2013-01-25 22:10:00,
2013-01-25 17:13:00,18.1,13.3,29.96,South,189,3.0,5.0,81,0.00,,---,0.00,VWS V14.01,2013-01-25 22:13:00,
2013-01-25 17:18:00,18.0,13.2,29.96,South,181,4.0,5.0,81,0.00,,---,0.00,VWS V14.01,2013-01-25 22:18:00,
2013-01-25 17:20:00,18.0,13.4,29.96,South,178,2.0,5.0,82,0.00,,---,0.00,VWS V14.01,2013-01-25 22:20:00,
2013-01-25 17:23:00,17.8,13.0,29.96,SSE,162,0.0,4.0,81,0.00,,---,0.00,VWS V14.01,2013-01-25 22:23:00,
2013-01-25 17:28:00,17.7,13.1,29.96,SSE,150,3.0,4.0,82,0.00,,---,0.00,VWS V14.01,2013-01-25 22:28:00,
2013-01-25 17:30:00,17.7,13.1,29.96,SSE,150,0.0,4.0,82,0.00,,---,0.00,VWS V14.01,2013-01-25 22:30:00,
2013-01-25 17:33:00,17.5,12.9,29.96,SSE,150,2.0,2.0,82,0.00,,---,0.00,VWS V14.01,2013-01-25 22:33:00,
2013-01-25 17:38:00,17.5,12.9,29.96,SE,141,0.0,4.0,82,0.00,,---,0.00,VWS V14.01,2013-01-25 22:38:00,
2013-01-25 17:40:00,17.5,12.9,29.97,SE,141,0.0,4.0,82,0.00,,---,0.00,VWS V14.01,2013-01-25 22:40:00,
2013-01-25 17:43:00,17.4,12.9,29.96,SE,141,0.0,2.0,82,0.00,,---,0.00,VWS V14.01,2013-01-25 22:43:00,
2013-01-25 17:48:00,17.2,12.7,29.97,SE,141,1.0,2.0,82,0.00,,---,0.00,VWS V14.01,2013-01-25 22:48:00,
2013-01-25 17:50:00,17.2,12.7,29.97,SE,141,0.0,2.0,82,0.00,,---,0.00,VWS V14.01,2013-01-25 22:50:00,
2013-01-25 17:53:00,17.2,12.7,29.97,SE,143,0.0,4.0,82,0.00,,---,0.00,VWS V14.01,2013-01-25 22:53:00,
2013-01-25 17:58:00,17.0,12.5,29.97,SE,142,1.0,4.0,82,0.00,,---,0.00,VWS V14.01,2013-01-25 22:58:00,
2013-01-25 18:00:00,17.2,12.9,29.97,SE,142,1.0,4.0,83,0.00,,---,0.00,VWS V14.01,2013-01-25 23:00:00,
2013-01-25 18:03:00,17.0,12.7,29.98,SE,142,1.0,2.0,83,0.00,,---,0.00,VWS V14.01,2013-01-25 23:03:00,
2013-01-25 18:08:00,17.0,12.7,29.98,SSE,165,1.0,4.0,83,0.00,,---,0.00,VWS V14.01,2013-01-25 23:08:00,
2013-01-25 18:10:00,17.2,12.9,29.97,SSE,165,2.0,4.0,83,0.00,,---,0.00,VWS V14.01,2013-01-25 23:10:00,
2013-01-25 18:13:00,17.2,12.9,29.98,SSE,165,1.0,3.0,83,0.00,,---,0.00,VWS V14.01,2013-01-25 23:13:00,
2013-01-25 18:18:00,17.2,12.9,29.97,SSE,159,2.0,4.0,83,0.00,,---,0.00,VWS V14.01,2013-01-25 23:18:00,
2013-01-25 18:20:00,17.4,13.1,29.97,SSE,160,0.0,4.0,83,0.00,,---,0.00,VWS V14.01,2013-01-25 23:20:00,
2013-01-25 18:23:00,17.4,13.1,29.98,SSE,160,1.0,5.0,83,0.00,,---,0.00,VWS V14.01,2013-01-25 23:23:00,
2013-01-25 18:28:00,17.5,13.2,29.97,South,183,1.0,6.0,83,0.00,,---,0.00,VWS V14.01,2013-01-25 23:28:00,
2013-01-25 18:30:00,17.5,13.2,29.98,South,183,1.0,6.0,83,0.00,,---,0.00,VWS V14.01,2013-01-25 23:30:00,
2013-01-25 18:33:00,17.5,13.2,29.98,South,183,2.0,3.0,83,0.00,,---,0.00,VWS V14.01,2013-01-25 23:33:00,
2013-01-25 18:38:00,17.5,12.9,29.98,South,179,5.0,5.0,82,0.00,,---,0.00,VWS V14.01,2013-01-25 23:38:00,
2013-01-25 18:40:00,17.5,12.9,29.98,SSE,165,2.0,7.0,82,0.00,,---,0.00,VWS V14.01,2013-01-25 23:40:00,
2013-01-25 18:43:00,17.5,12.9,29.98,SSE,165,1.0,3.0,82,0.00,,---,0.00,VWS V14.01,2013-01-25 23:43:00,
2013-01-25 18:48:00,17.3,12.8,29.98,South,174,2.0,6.0,82,0.00,,---,0.00,VWS V14.01,2013-01-25 23:48:00,
2013-01-25 18:50:00,17.3,12.8,29.98,South,173,0.0,6.0,82,0.00,,---,0.00,VWS V14.01,2013-01-25 23:50:00,
2013-01-25 18:53:00,17.4,12.6,29.98,South,173,2.0,3.0,81,0.00,,---,0.00,VWS V14.01,2013-01-25 23:53:00,
2013-01-25 18:58:00,17.2,12.7,29.98,South,185,2.0,6.0,82,0.00,,---,0.00,VWS V14.01,2013-01-25 23:58:00,
2013-01-25 19:00:00,17.2,12.7,29.98,SSE,166,3.0,6.0,82,0.00,,---,0.00,VWS V14.01,2013-01-26 00:00:00,
2013-01-25 19:03:00,17.0,12.2,29.98,South,170,1.0,5.0,81,0.00,,---,0.00,VWS V14.01,2013-01-26 00:03:00,
2013-01-25 19:08:00,16.9,12.1,29.99,South,170,1.0,5.0,81,0.00,,---,0.00,VWS V14.01,2013-01-26 00:08:00,
2013-01-25 19:10:00,16.9,12.4,29.99,South,170,0.0,5.0,82,0.00,,---,0.00,VWS V14.01,2013-01-26 00:10:00,
2013-01-25 19:13:00,16.9,12.1,29.98,South,170,1.0,5.0,81,0.00,,---,0.00,VWS V14.01,2013-01-26 00:13:00,
2013-01-25 19:18:00,16.6,11.8,29.99,South,170,0.0,5.0,81,0.00,,---,0.00,VWS V14.01,2013-01-26 00:18:00,
2013-01-25 19:20:00,16.6,11.8,29.99,South,170,1.0,5.0,81,0.00,,---,0.00,VWS V14.01,2013-01-26 00:20:00,
2013-01-25 19:23:00,16.4,11.9,29.99,South,170,1.0,3.0,82,0.00,,---,0.00,VWS V14.01,2013-01-26 00:23:00,
2013-01-25 19:28:00,16.2,11.7,29.98,South,170,1.0,3.0,82,0.00,,---,0.00,VWS V14.01,2013-01-26 00:28:00,
2013-01-25 19:30:00,16.2,11.7,29.98,South,170,0.0,3.0,82,0.00,,---,0.00,VWS V14.01,2013-01-26 00:30:00,
2013-01-25 19:33:00,16.1,11.6,29.99,South,170,0.0,2.0,82,0.00,,---,0.00,VWS V14.01,2013-01-26 00:33:00,
2013-01-25 19:38:00,15.9,11.4,29.99,South,170,1.0,3.0,82,0.00,,---,0.00,VWS V14.01,2013-01-26 00:38:00,
2013-01-25 19:40:00,15.9,11.4,29.98,South,170,1.0,3.0,82,0.00,,---,0.00,VWS V14.01,2013-01-26 00:40:00,
2013-01-25 19:43:00,15.9,11.4,29.99,South,170,1.0,2.0,82,0.00,,---,0.00,VWS V14.01,2013-01-26 00:43:00,
2013-01-25 19:48:00,15.6,11.1,29.98,South,170,1.0,2.0,82,0.00,,---,0.00,VWS V14.01,2013-01-26 00:48:00,
2013-01-25 19:50:00,15.6,11.1,29.98,South,170,1.0,2.0,82,0.00,,---,0.00,VWS V14.01,2013-01-26 00:50:00,
2013-01-25 19:53:00,15.6,11.1,29.98,South,170,0.0,3.0,82,0.00,,---,0.00,VWS V14.01,2013-01-26 00:53:00,
2013-01-25 19:58:00,15.6,11.4,29.99,South,170,0.0,3.0,83,0.00,,---,0.00,VWS V14.01,2013-01-26 00:58:00,
2013-01-25 20:00:00,15.6,11.4,29.99,South,170,1.0,3.0,83,0.00,,---,0.00,VWS V14.01,2013-01-26 01:00:00,
2013-01-25 20:03:00,15.6,11.1,29.99,South,170,1.0,3.0,82,0.00,,---,0.00,VWS V14.01,2013-01-26 01:03:00,
2013-01-25 20:08:00,15.4,11.2,29.98,South,170,1.0,3.0,83,0.00,,---,0.00,VWS V14.01,2013-01-26 01:08:00,
2013-01-25 20:10:00,15.4,11.2,29.99,South,170,1.0,3.0,83,0.00,,---,0.00,VWS V14.01,2013-01-26 01:10:00,
2013-01-25 20:13:00,15.4,11.2,29.99,South,170,1.0,3.0,83,0.00,,---,0.00,VWS V14.01,2013-01-26 01:13:00,
2013-01-25 20:18:00,15.6,11.4,29.99,South,180,2.0,4.0,83,0.00,,---,0.00,VWS V14.01,2013-01-26 01:18:00,
2013-01-25 20:20:00,15.6,11.4,29.99,South,181,1.0,4.0,83,0.00,,---,0.00,VWS V14.01,2013-01-26 01:20:00,
2013-01-25 20:23:00,15.8,11.6,29.99,South,181,2.0,3.0,83,0.00,,---,0.00,VWS V14.01,2013-01-26 01:23:00,
2013-01-25 20:28:00,15.9,11.7,29.99,South,181,1.0,4.0,83,0.00,,---,0.00,VWS V14.01,2013-01-26 01:28:00,
2013-01-25 20:30:00,15.9,11.7,29.99,South,181,0.0,4.0,83,0.00,,---,0.00,VWS V14.01,2013-01-26 01:30:00,
2013-01-25 20:33:00,15.9,11.7,29.98,South,181,2.0,3.0,83,0.00,,---,0.00,VWS V14.01,2013-01-26 01:33:00,
2013-01-25 20:38:00,15.9,11.7,29.98,South,181,0.0,3.0,83,0.00,,---,0.00,VWS V14.01,2013-01-26 01:38:00,
2013-01-25 20:40:00,15.9,11.7,29.98,SSE,155,1.0,4.0,83,0.00,,---,0.00,VWS V14.01,2013-01-26 01:40:00,
2013-01-25 20:43:00,15.9,11.7,29.98,SSE,166,0.0,4.0,83,0.00,,---,0.00,VWS V14.01,2013-01-26 01:43:00,
2013-01-25 20:48:00,15.9,11.7,29.98,SSE,167,1.0,4.0,83,0.00,,---,0.00,VWS V14.01,2013-01-26 01:48:00,
2013-01-25 20:50:00,15.9,11.7,29.98,SSE,167,3.0,4.0,83,0.00,,---,0.00,VWS V14.01,2013-01-26 01:50:00,
2013-01-25 20:53:00,16.1,11.9,29.98,South,185,1.0,4.0,83,0.00,,---,0.00,VWS V14.01,2013-01-26 01:53:00,
2013-01-25 20:58:00,16.1,11.9,29.99,South,180,0.0,5.0,83,0.00,,---,0.00,VWS V14.01,2013-01-26 01:58:00,
2013-01-25 21:00:00,16.1,11.9,29.98,South,180,3.0,5.0,83,0.00,,---,0.00,VWS V14.01,2013-01-26 02:00:00,
2013-01-25 21:03:00,16.1,11.9,29.99,South,180,2.0,4.0,83,0.00,,---,0.00,VWS V14.01,2013-01-26 02:03:00,
2013-01-25 21:08:00,16.1,11.9,29.98,South,173,0.0,4.0,83,0.00,,---,0.00,VWS V14.01,2013-01-26 02:08:00,
2013-01-25 21:10:00,16.2,11.9,29.98,South,173,2.0,4.0,83,0.00,,---,0.00,VWS V14.01,2013-01-26 02:10:00,
2013-01-25 21:13:00,16.2,12.0,29.99,SSW,195,1.0,5.0,83,0.00,,---,0.00,VWS V14.01,2013-01-26 02:13:00,
2013-01-25 21:19:00,16.4,12.1,29.98,South,191,3.0,5.0,83,0.00,,---,0.00,VWS V14.01,2013-01-26 02:19:00,
2013-01-25 21:20:00,16.4,12.1,29.99,SSE,168,1.0,5.0,83,0.00,,---,0.00,VWS V14.01,2013-01-26 02:20:00,
2013-01-25 21:24:00,16.4,11.9,29.99,SSW,195,3.0,4.0,82,0.00,,---,0.00,VWS V14.01,2013-01-26 02:24:00,
2013-01-25 21:29:00,16.4,12.1,29.99,SSW,193,2.0,5.0,83,0.00,,---,0.00,VWS V14.01,2013-01-26 02:29:00,
2013-01-25 21:30:00,16.4,12.1,29.99,SSW,193,2.0,5.0,83,0.00,,---,0.00,VWS V14.01,2013-01-26 02:30:00,
2013-01-25 21:34:00,16.4,12.1,29.99,SSW,201,2.0,4.0,83,0.00,,---,0.00,VWS V14.01,2013-01-26 02:34:00,
2013-01-25 21:39:00,16.4,12.1,29.99,South,189,2.0,5.0,83,0.00,,---,0.00,VWS V14.01,2013-01-26 02:39:00,
2013-01-25 21:40:00,16.4,11.9,29.99,South,189,1.0,5.0,82,0.00,,---,0.00,VWS V14.01,2013-01-26 02:40:00,
2013-01-25 21:44:00,16.4,12.1,29.99,SSE,166,1.0,4.0,83,0.00,,---,0.00,VWS V14.01,2013-01-26 02:44:00,
2013-01-25 21:49:00,16.2,11.7,29.99,South,174,1.0,4.0,82,0.00,,---,0.00,VWS V14.01,2013-01-26 02:49:00,
2013-01-25 21:50:00,16.2,11.7,29.99,South,174,1.0,5.0,82,0.00,,---,0.00,VWS V14.01,2013-01-26 02:50:00,
2013-01-25 21:54:00,16.4,12.1,29.99,SSW,196,3.0,4.0,83,0.00,,---,0.00,VWS V14.01,2013-01-26 02:54:00,
2013-01-25 21:59:00,16.4,11.9,30.00,South,174,3.0,5.0,82,0.00,,---,0.00,VWS V14.01,2013-01-26 02:59:00,
2013-01-25 22:00:00,16.4,12.1,29.99,South,174,2.0,5.0,83,0.00,,---,0.00,VWS V14.01,2013-01-26 03:00:00,
2013-01-25 22:04:00,16.6,12.4,30.00,SSW,197,3.0,5.0,83,0.00,,---,0.00,VWS V14.01,2013-01-26 03:04:00,
2013-01-25 22:09:00,16.6,12.1,30.00,South,190,3.0,5.0,82,0.00,,---,0.00,VWS V14.01,2013-01-26 03:09:00,
2013-01-25 22:10:00,16.6,12.1,30.00,SSW,196,2.0,5.0,82,0.00,,---,0.00,VWS V14.01,2013-01-26 03:10:00,
2013-01-25 22:14:00,16.6,12.4,30.00,South,170,2.0,5.0,83,0.00,,---,0.00,VWS V14.01,2013-01-26 03:14:00,
2013-01-25 22:19:00,16.6,12.4,30.00,South,181,2.0,5.0,83,0.00,,---,0.00,VWS V14.01,2013-01-26 03:19:00,
2013-01-25 22:20:00,16.6,12.4,30.00,South,181,2.0,5.0,83,0.00,,---,0.00,VWS V14.01,2013-01-26 03:20:00,
2013-01-25 22:24:00,16.6,12.1,30.00,South,177,1.0,4.0,82,0.00,,---,0.00,VWS V14.01,2013-01-26 03:24:00,
2013-01-25 22:29:00,16.6,12.1,30.00,SSE,167,2.0,5.0,82,0.00,,---,0.00,VWS V14.01,2013-01-26 03:29:00,
2013-01-25 22:30:00,16.6,12.4,30.00,SSE,164,2.0,5.0,83,0.00,,---,0.00,VWS V14.01,2013-01-26 03:30:00,
2013-01-25 22:34:00,16.7,12.4,30.00,South,180,2.0,5.0,83,0.00,,---,0.00,VWS V14.01,2013-01-26 03:34:00,
2013-01-25 22:39:00,16.7,12.2,30.00,South,185,1.0,5.0,82,0.00,,---,0.00,VWS V14.01,2013-01-26 03:39:00,
2013-01-25 22:40:00,16.7,12.2,30.00,South,185,2.0,5.0,82,0.00,,---,0.00,VWS V14.01,2013-01-26 03:40:00,
2013-01-25 22:44:00,16.7,12.2,30.00,SSE,151,2.0,4.0,82,0.00,,---,0.00,VWS V14.01,2013-01-26 03:44:00,
2013-01-25 22:49:00,16.7,12.2,30.00,SSW,198,3.0,4.0,82,0.00,,---,0.00,VWS V14.01,2013-01-26 03:49:00,
2013-01-25 22:50:00,16.7,12.2,30.00,South,190,0.0,4.0,82,0.00,,---,0.00,VWS V14.01,2013-01-26 03:50:00,
2013-01-25 22:54:00,16.7,12.4,30.00,South,189,2.0,5.0,83,0.00,,---,0.00,VWS V14.01,2013-01-26 03:54:00,
2013-01-25 22:59:00,16.7,12.2,30.00,South,172,3.0,5.0,82,0.00,,---,0.00,VWS V14.01,2013-01-26 03:59:00,
2013-01-25 23:00:00,16.7,12.2,30.00,South,172,2.0,5.0,82,0.00,,---,0.00,VWS V14.01,2013-01-26 04:00:00,
2013-01-25 23:04:00,16.7,12.2,30.00,South,175,0.0,5.0,82,0.00,,---,0.00,VWS V14.01,2013-01-26 04:04:00,
2013-01-25 23:09:00,16.7,12.4,30.00,SSW,193,4.0,5.0,83,0.00,,---,0.00,VWS V14.01,2013-01-26 04:09:00,
2013-01-25 23:10:00,16.7,12.4,30.00,SSW,193,3.0,5.0,83,0.00,,---,0.00,VWS V14.01,2013-01-26 04:10:00,
2013-01-25 23:14:00,16.7,12.2,30.00,South,185,2.0,4.0,82,0.00,,---,0.00,VWS V14.01,2013-01-26 04:14:00,
2013-01-25 23:19:00,16.7,12.2,30.00,South,185,3.0,5.0,82,0.00,,---,0.00,VWS V14.01,2013-01-26 04:19:00,
2013-01-25 23:20:00,16.7,12.4,30.00,South,185,1.0,5.0,83,0.00,,---,0.00,VWS V14.01,2013-01-26 04:20:00,
2013-01-25 23:24:00,16.7,12.2,30.01,South,185,1.0,4.0,82,0.00,,---,0.00,VWS V14.01,2013-01-26 04:24:00,
2013-01-25 23:29:00,16.7,12.2,30.01,South,176,2.0,5.0,82,0.00,,---,0.00,VWS V14.01,2013-01-26 04:29:00,
2013-01-25 23:30:00,16.7,12.2,30.01,South,176,1.0,5.0,82,0.00,,---,0.00,VWS V14.01,2013-01-26 04:30:00,
2013-01-25 23:34:00,16.7,12.4,30.01,South,188,2.0,5.0,83,0.00,,---,0.00,VWS V14.01,2013-01-26 04:34:00,
2013-01-25 23:39:00,16.7,12.2,30.01,South,188,3.0,5.0,82,0.00,,---,0.00,VWS V14.01,2013-01-26 04:39:00,
2013-01-25 23:40:00,16.7,12.4,30.01,South,188,3.0,5.0,83,0.00,,---,0.00,VWS V14.01,2013-01-26 04:40:00,
2013-01-25 23:44:00,16.7,12.4,30.01,South,188,2.0,5.0,83,0.00,,---,0.00,VWS V14.01,2013-01-26 04:44:00,
2013-01-25 23:49:00,16.7,12.4,30.01,South,187,2.0,5.0,83,0.00,,---,0.00,VWS V14.01,2013-01-26 04:49:00,
2013-01-25 23:50:00,16.7,12.4,30.01,South,187,2.0,5.0,83,0.00,,---,0.00,VWS V14.01,2013-01-26 04:50:00,
2013-01-25 23:54:00,16.7,12.4,30.02,South,179,2.0,5.0,83,0.00,,---,0.00,VWS V14.01,2013-01-26 04:54:00,
2013-01-25 23:59:00,16.7,12.4,30.01,South,181,1.0,5.0,83,0.00,,---,0.00,VWS V14.01,2013-01-26 04:59:00,